Погода в Олдонде

Россия / Забайкальский край     50°53′10″N   116°57′02″E
темп.,
°C
ветер,
м/с
пор.,
м/с
влажн.,
%
обл.,
%
осадки,
мм/ч
давл.,
гПа
погр.,
м
3 марта, ср
ср300:00−21ю239887 0.0 101741
03:00−18ююз229484 0.0 101537
06:00−18ююз229298 0.0 101329
09:00−17юз129186 0.0 101228
12:00−8зюз1585100 0.0 1010366
15:00−6зсз4973100 0.0 1008805
18:00−10зсз1280100 0.0 100921
21:00−15зюз128495 0.0 101020
4 марта, чт
чт400:00−13зюз259697 0.5 1010209
03:00−13з4119299 0.7 1011518
06:00−19зсз5158056 0.0 1013443
09:00−20зсз6158328 0.0 1017670
12:00−17сз59810 0.0 1020830
15:00−17ссз697940 0.1 10231301
18:00−20ссз5108499 0.1 10261049
21:00−26сз229074 0.1 103220
5 марта, пт
пт500:00−28сз22879 0.0 103519
03:00−29сз22825 0.0 103819
06:00−30сз12750 0.0 104119
09:00−27зсз12780 0.0 104426
12:00−19зсз23680 0.0 1044672
15:00−18з33730 0.0 1042678
18:00−20зюз22770 0.0 104188
21:00−27юз12840 0.0 104319
6 марта, сб
сб600:00−27ююз22860 0.0 104119
03:00−26ю22920 0.0 104024
06:00−24ю229186 0.0 103756
09:00−22ююв229387 0.0 103661
12:00−16ююв228768 0.0 1033234
15:00−12ююз238684 0.0 1030371
18:00−13юз1293100 0.0 1029196
21:00−20з129865 0.0 103020
7 марта, вс
вс700:00−20з12960 0.0 103020
03:00−19з229916 0.0 102925
06:00−18з229650 0.0 102820
09:00−14зсз239154 0.0 102990
12:00−6зсз26680 0.0 1027635
15:00−5з34660 0.0 1027867
18:00−8зюз22830 0.0 102738
21:00−14юз12880 0.0 102920